Weather History for Alturas, CA

Change the Weather History Date:

Saturday, January 4, 2014

  Actual Average Record
Temperature  
Mean Temperature 25 °F 29 °F  
Max Temperature 41 °F 40 °F 62 °F (2012)
Min Temperature 8 °F 18 °F -26 °F (1912)
Degree Days  
Heating Degree Days 40 36  
Month to date heating degree days 129 144  
Since 1 July heating degree days 3146 3054  
Cooling Degree Days 0 0  
Month to date cooling degree days 0 0  
Year to date cooling degree days 0 0  
Moisture  
Dew Point 10 °F    
Average Humidity 57    
Maximum Humidity 84    
Minimum Humidity 30    
Precipitation  
Precipitation 0.00 in 0.07 in 0.50 in (1965)
Month to date precipitation 0.00 0.31  
Year to date precipitation 0.00 0.31  
Sea Level Pressure  
Sea Level Pressure 30.32 in    
Wind  
Wind Speed 3 mph (East)    
Max Wind Speed 14 mph    
Max Gust Speed 20 mph    
Visibility 9 miles    
Events      
T = Trace of Precipitation, MM = Missing Value Source: NWS Daily Summary

Daily Weather History Graph

Daily Weather History Graph

Search for Another Location

Airport:

Trip Planner

Search our weather history database for the weather conditions in past years. The results will help you decide how hot, cold, wet, or windy it might be!

Date:

Astronomy

Jan. 04, 2014 Rise Set
Actual Time 7:28 AM PST 4:46 PM PST
Civil Twilight 6:57 AM PST 5:17 PM PST
Nautical Twilight 6:23 AM PST 5:51 PM PST
Astronomical Twilight 5:49 AM PST 6:25 PM PST
Moon 9:34 AM PST (1/4) 9:15 PM PST (1/4)
Length of Visible Light 10h 19m
Length of Day
9h 17m
Waxing Crescent, 16% of the Moon is Illuminated
Jan 4
Waxing Crescent
Jan 7
First Quarter
Jan 15
Full
Jan 23
Last Quarter
Jan 30
New

Hourly Weather History & Observations

Time (PST) Temp. Windchill Dew Point Humidity Pressure Visibility Wind Dir Wind Speed Gust Speed Precip Events Conditions
12:55 AM 28.9 °F 20.4 °F 15.1 °F 56% 30.10 in 10.0 mi NNE 9.2 mph - N/A   Clear
1:55 AM 24.1 °F - 14.0 °F 65% 30.14 in 10.0 mi Calm Calm - N/A   Clear
2:55 AM 27.0 °F 18.7 °F 12.9 °F 56% 30.15 in 10.0 mi NE 8.1 mph - N/A   Clear
3:55 AM 23.0 °F 15.8 °F 10.9 °F 60% 30.18 in 10.0 mi SE 5.8 mph - N/A   Clear
4:55 AM 21.9 °F 15.7 °F 10.9 °F 63% 30.22 in 10.0 mi SE 4.6 mph - N/A   Clear
5:55 AM 14.0 °F - 9.0 °F 80% 30.27 in 10.0 mi Calm Calm - N/A   Clear
6:55 AM 14.0 °F - 8.1 °F 77% 30.30 in 10.0 mi Calm Calm - N/A   Clear
7:34 AM 12.9 °F 3.8 °F 9.0 °F 84% 30.26 in 2.5 mi ENE 5.8 mph - N/A   Clear
7:41 AM 14.0 °F 3.9 °F 9.0 °F 80% 30.26 in 6.0 mi ENE 6.9 mph - N/A   Haze
7:55 AM 15.1 °F 4.2 °F 10.0 °F 80% 30.33 in 10.0 mi ENE 8.1 mph - N/A   Clear
8:55 AM 16.0 °F - 10.0 °F 77% 30.36 in 10.0 mi Calm Calm - N/A   Clear
9:55 AM 25.0 °F 20.7 °F 14.0 °F 63% 30.38 in 10.0 mi Variable 3.5 mph - N/A   Clear
10:55 AM 28.0 °F 24.2 °F 15.1 °F 58% 30.38 in 10.0 mi Variable 3.5 mph - N/A   Clear
11:55 AM 33.1 °F - 14.0 °F 46% 30.36 in 10.0 mi Calm Calm - N/A   Clear
12:55 PM 36.0 °F 33.3 °F 14.0 °F 41% 30.32 in 10.0 mi SSE 3.5 mph - N/A   Clear
1:55 PM 39.0 °F 35.7 °F 14.0 °F 36% 30.31 in 10.0 mi Variable 4.6 mph - N/A   Clear
2:55 PM 39.9 °F 37.8 °F 12.0 °F 32% 30.30 in 10.0 mi Variable 3.5 mph - N/A   Clear
3:55 PM 41.0 °F - 12.0 °F 31% 30.32 in 10.0 mi Calm Calm - N/A   Clear
4:55 PM 35.1 °F 31.0 °F 10.0 °F 35% 30.33 in 10.0 mi SSE 4.6 mph - N/A   Clear
5:55 PM 30.0 °F - 9.0 °F 41% 30.37 in 8.0 mi Calm Calm - N/A   Clear
6:55 PM 19.0 °F - 6.1 °F 57% 30.43 in 9.0 mi Calm Calm - N/A   Clear
7:55 PM 19.0 °F - 8.1 °F 62% 30.44 in 7.0 mi Calm Calm - N/A   Clear
8:55 PM 12.9 °F - 5.0 °F 71% 30.48 in 10.0 mi Calm Calm - N/A   Clear
9:55 PM 12.9 °F 5.2 °F 7.0 °F 77% 30.47 in 10.0 mi South 4.6 mph - N/A   Clear
10:55 PM 12.9 °F 6.9 °F 5.0 °F 71% 30.47 in 5.0 mi North 3.5 mph - N/A   Haze
11:55 PM 9.0 °F - 3.0 °F 77% 30.48 in 10.0 mi Calm Calm - N/A   Clear